Imperial, CA

9:39 AM PDT on September 27, 2016 (GMT -0700)
Imperial County

Weather History for KIPL - March, 2014

Change the Weather History Date:

Saturday, March 8, 2014

  Actual Average Record
Temperature  
Mean Temperature 66 °F -  
Max Temperature 82 °F 77 °F 90 °F (1957)
Min Temperature 51 °F 49 °F 37 °F (1956)
Cooling Degree Days 2    
Growing Degree Days 16 (Base 50)    
Moisture  
Dew Point 30 °F    
Average Humidity 31    
Maximum Humidity 54    
Minimum Humidity 10    
Precipitation  
Precipitation 0.00 in - - ()
Sea Level Pressure  
Sea Level Pressure 30.05 in    
Wind  
Wind Speed 9 mph (NW)    
Max Wind Speed 22 mph    
Max Gust Speed 31 mph    
Visibility 10 miles    
Events      
Averages and records for this station are not official NWS values.
T = Trace of Precipitation, MM = Missing Value Source: NWS Daily Summary

Daily Weather History Graph

Daily Weather History Graph

Search for Another Location

Airport or City:

Trip Planner

Search our weather history database for the weather conditions in past years. The results will help you decide how hot, cold, wet, or windy it might be!

Date:

Astronomy

Mar. 08, 2014 Rise Set
Actual Time 6:01 AM PST 5:45 PM PST
Civil Twilight 5:36 AM PST 6:09 PM PST
Nautical Twilight 5:08 AM PST 6:38 PM PST
Astronomical Twilight 4:39 AM PST 7:06 PM PST
Moon 11:06 AM PST (3/8) 12:27 AM PST (3/8)
Length of Visible Light 12h 32m
Length of Day
11h 43m
First Quarter, 53% of the Moon is Illuminated
Mar 8
First Quarter
Mar 16
Full
Mar 23
Last Quarter
Mar 30
New
Apr 7
First Quarter

Hourly Weather History & Observations

Time (PST) Temp. Dew Point Humidity Pressure Visibility Wind Dir Wind Speed Gust Speed Precip Events Conditions
12:53 AM 55.0 °F 37.9 °F 53% 29.96 in 10.0 mi WNW 5.8 mph - N/A   Clear
1:53 AM 52.0 °F 36.0 °F 54% 29.97 in 10.0 mi West 6.9 mph - N/A   Clear
2:53 AM 53.1 °F 35.1 °F 50% 29.98 in 10.0 mi WNW 3.5 mph - N/A   Clear
3:53 AM 52.0 °F 35.1 °F 53% 30.00 in 10.0 mi West 4.6 mph - N/A   Clear
4:53 AM 51.1 °F 35.1 °F 54% 30.03 in 10.0 mi West 5.8 mph - N/A   Clear
5:53 AM 53.1 °F 33.1 °F 47% 30.05 in 10.0 mi WSW 5.8 mph - N/A   Clear
6:53 AM 55.0 °F 37.0 °F 51% 30.08 in 10.0 mi Variable 3.5 mph - N/A   Clear
7:53 AM 66.0 °F 37.9 °F 36% 30.10 in 10.0 mi Variable 4.6 mph - N/A   Clear
8:53 AM 73.9 °F 34.0 °F 23% 30.10 in 10.0 mi North 19.6 mph 26.5 mph N/A   Clear
9:53 AM 75.0 °F 28.0 °F 18% 30.11 in 10.0 mi NNW 19.6 mph 25.3 mph N/A   Clear
10:53 AM 78.1 °F 28.9 °F 17% 30.09 in 10.0 mi NNW 21.9 mph 31.1 mph N/A   Clear
11:53 AM 80.1 °F 21.9 °F 12% 30.09 in 10.0 mi NNW 18.4 mph 27.6 mph N/A   Clear
12:53 PM 82.0 °F 19.0 °F 10% 30.06 in 10.0 mi North 16.1 mph 21.9 mph N/A   Clear
1:53 PM 82.0 °F 19.9 °F 10% 30.04 in 10.0 mi North 17.3 mph - N/A   Clear
2:53 PM 82.9 °F 21.0 °F 10% 30.03 in 10.0 mi NNW 16.1 mph 21.9 mph N/A   Clear
3:53 PM 82.0 °F 19.9 °F 10% 30.03 in 10.0 mi NNW 11.5 mph - N/A   Clear
4:53 PM 81.0 °F 21.0 °F 11% 30.03 in 10.0 mi NNW 6.9 mph - N/A   Clear
5:53 PM 73.9 °F 28.9 °F 19% 30.04 in 10.0 mi NW 4.6 mph - N/A   Clear
6:53 PM 71.1 °F 30.9 °F 23% 30.06 in 10.0 mi North 5.8 mph - N/A   Clear
7:53 PM 66.9 °F 30.0 °F 25% 30.07 in 10.0 mi NW 5.8 mph - N/A   Clear
8:53 PM 60.1 °F 34.0 °F 38% 30.09 in 10.0 mi West 8.1 mph - N/A   Clear
9:53 PM 57.9 °F 36.0 °F 44% 30.09 in 10.0 mi WNW 4.6 mph - N/A   Clear
10:53 PM 64.0 °F 35.1 °F 34% 30.10 in 10.0 mi NNW 8.1 mph - N/A   Clear
11:53 PM 64.0 °F 34.0 °F 33% 30.11 in 10.0 mi NNW 8.1 mph - N/A   Clear